DLH453 KLAX-EDDM

Flight info

Callsign DLH453
Flight time N/A
Altitude 33000
Route OSHNN1 BEALE J146 DVC DCT PWE/N0479F350 DCT KP63G DCT KG69K DCT SVM Q907 DERLO DCT DEDKI DCT SANIN DCT ALONI Q951 SSENA DCT TAFFY/N0478F370 N643B RIKAL/M083F370 DCT 53N050W 55N040W 56N030W 56N020W DCT RESNO/N0481F370 DCT NETKI DCT MORAG/N0472F390 DCT NUCHU L607 KONAN UL607 KOK DCT REMBA DCT SPI DCT MOVUM T109 HAREM/N0483F350 T104 ELMOX/N0454F270 T104 ROKIL ROKIL1A
Aircraft A346/H-SDE2E3FGHIJ3J4J5M1RWXY/LB1D1

Departure

Time 2026-05-08 05:03
Airport Los Angeles International Airport (KLAX)

Arrival

Time N/A
Airport Munich Airport (EDDM)
Time Latitude Longitude Altitude Speed Heading
2026-05-08 04:29 33.94020 -118.41086 101 ft 0 kts 83°
2026-05-08 04:48 33.94018 -118.41100 101 ft 4 kts 83°
2026-05-08 04:48 33.94015 -118.41132 101 ft 4 kts 83°
2026-05-08 04:48 33.94013 -118.41156 102 ft 4 kts 94°
2026-05-08 04:48 33.94018 -118.41177 101 ft 4 kts 131°
2026-05-08 04:49 33.94030 -118.41185 101 ft 3 kts 173°
2026-05-08 04:49 33.94056 -118.41189 100 ft 4 kts 173°
2026-05-08 04:49 33.94071 -118.41191 100 ft 0 kts 173°
2026-05-08 04:53 33.94068 -118.41191 104 ft 1 kts 173°
2026-05-08 04:53 33.94040 -118.41187 101 ft 7 kts 173°
2026-05-08 04:54 33.93978 -118.41178 101 ft 10 kts 173°
2026-05-08 04:54 33.93902 -118.41166 101 ft 12 kts 173°
2026-05-08 04:54 33.93816 -118.41153 103 ft 13 kts 173°
2026-05-08 04:54 33.93769 -118.41081 102 ft 13 kts 94°
2026-05-08 04:55 33.93780 -118.40967 101 ft 14 kts 83°
2026-05-08 04:55 33.93793 -118.40845 102 ft 15 kts 83°
2026-05-08 04:55 33.93805 -118.40719 103 ft 15 kts 83°
2026-05-08 04:55 33.93819 -118.40587 102 ft 16 kts 82°
2026-05-08 04:56 33.93831 -118.40455 103 ft 16 kts 83°
2026-05-08 04:56 33.93845 -118.40322 104 ft 16 kts 83°
2026-05-08 04:56 33.93860 -118.40185 105 ft 16 kts 82°
2026-05-08 04:56 33.93874 -118.40048 104 ft 17 kts 84°
2026-05-08 04:57 33.93888 -118.39906 105 ft 17 kts 83°
2026-05-08 04:57 33.93903 -118.39762 105 ft 18 kts 83°
2026-05-08 04:57 33.93917 -118.39614 103 ft 18 kts 83°
2026-05-08 04:57 33.93932 -118.39464 103 ft 18 kts 83°
2026-05-08 04:58 33.93948 -118.39310 101 ft 19 kts 83°
2026-05-08 04:58 33.93965 -118.39153 103 ft 19 kts 82°
2026-05-08 04:58 33.93982 -118.38997 102 ft 19 kts 83°
2026-05-08 04:58 33.93997 -118.38840 105 ft 19 kts 83°
2026-05-08 04:59 33.94014 -118.38683 106 ft 19 kts 83°
2026-05-08 04:59 33.94029 -118.38528 104 ft 19 kts 83°
2026-05-08 04:59 33.94045 -118.38373 105 ft 19 kts 83°
2026-05-08 04:59 33.94061 -118.38217 103 ft 19 kts 83°
2026-05-08 05:00 33.94074 -118.38093 103 ft 6 kts 83°
2026-05-08 05:00 33.94077 -118.38053 101 ft 0 kts 96°
2026-05-08 05:00 33.94077 -118.38052 102 ft 0 kts 96°
2026-05-08 05:00 33.94076 -118.38050 101 ft 1 kts 99°
2026-05-08 05:01 33.94070 -118.38030 101 ft 4 kts 119°
2026-05-08 05:01 33.94043 -118.38006 101 ft 6 kts 157°
2026-05-08 05:01 33.93991 -118.38019 102 ft 10 kts 232°
2026-05-08 05:01 33.93982 -118.38054 102 ft 0 kts 261°
2026-05-08 05:02 33.93962 -118.38198 106 ft 47 kts 261°
2026-05-08 05:02 33.93894 -118.38879 105 ft 115 kts 263°
2026-05-08 05:02 33.93771 -118.40080 107 ft 171 kts 263°
2026-05-08 05:02 33.93603 -118.41664 339 ft 199 kts 262°
2026-05-08 05:03 33.93429 -118.43267 1016 ft 202 kts 262°
2026-05-08 05:03 33.93241 -118.44967 1718 ft 211 kts 257°
2026-05-08 05:03 33.92664 -118.46648 2209 ft 224 kts 236°
2026-05-08 05:03 33.91703 -118.48203 2579 ft 239 kts 231°
2026-05-08 05:04 33.90612 -118.49814 2938 ft 256 kts 230°
2026-05-08 05:04 33.89408 -118.51501 3458 ft 266 kts 230°
2026-05-08 05:04 33.88195 -118.53196 4168 ft 268 kts 230°
2026-05-08 05:04 33.86952 -118.54877 4879 ft 271 kts 223°
2026-05-08 05:05 33.85301 -118.55931 5465 ft 279 kts 192°
2026-05-08 05:05 33.83348 -118.55862 6036 ft 287 kts 169°
2026-05-08 05:05 33.81390 -118.55295 6564 ft 292 kts 168°
2026-05-08 05:05 33.79397 -118.54717 7051 ft 296 kts 169°
2026-05-08 05:06 33.77378 -118.54150 7588 ft 299 kts 169°
2026-05-08 05:06 33.75343 -118.53593 8111 ft 301 kts 169°
2026-05-08 05:06 33.73290 -118.53037 8619 ft 304 kts 169°
2026-05-08 05:06 33.71237 -118.52390 9085 ft 309 kts 157°
2026-05-08 05:07 33.69516 -118.50847 9507 ft 313 kts 126°
2026-05-08 05:07 33.68547 -118.48527 10048 ft 311 kts 108°
2026-05-08 05:07 33.67860 -118.46037 10459 ft 318 kts 107°
2026-05-08 05:07 33.67150 -118.43461 10692 ft 331 kts 108°
2026-05-08 05:08 33.66390 -118.40801 10927 ft 343 kts 108°
2026-05-08 05:08 33.65583 -118.38042 11166 ft 356 kts 108°
2026-05-08 05:08 33.64879 -118.35144 11397 ft 368 kts 101°
2026-05-08 05:08 33.64506 -118.32056 11629 ft 379 kts 93°
2026-05-08 05:09 33.64441 -118.28852 11983 ft 387 kts 89°
2026-05-08 05:09 33.64450 -118.25610 12577 ft 388 kts 89°
2026-05-08 05:09 33.64477 -118.22364 13209 ft 389 kts 86°
2026-05-08 05:09 33.65022 -118.19164 13688 ft 391 kts 66°
2026-05-08 05:10 33.66452 -118.16391 14230 ft 392 kts 47°
2026-05-08 05:10 33.70732 -118.12310 15358 ft 396 kts 36°
2026-05-08 05:10 33.72982 -118.10325 15858 ft 399 kts 36°
2026-05-08 05:11 33.75205 -118.08353 16381 ft 402 kts 36°
2026-05-08 05:11 33.77458 -118.06342 16901 ft 405 kts 36°
2026-05-08 05:11 33.79726 -118.04312 17416 ft 408 kts 36°
2026-05-08 05:11 33.82005 -118.02266 17905 ft 410 kts 36°
2026-05-08 05:12 33.84297 -118.00205 18421 ft 412 kts 36°
2026-05-08 05:12 33.86604 -117.98129 18911 ft 415 kts 36°
2026-05-08 05:12 33.88923 -117.96041 19383 ft 418 kts 36°
2026-05-08 05:12 33.91258 -117.93936 19861 ft 420 kts 36°
2026-05-08 05:13 33.93630 -117.91774 20318 ft 423 kts 37°
2026-05-08 05:13 33.95981 -117.89622 20755 ft 426 kts 37°
2026-05-08 05:13 33.98345 -117.87457 21171 ft 428 kts 37°
2026-05-08 05:13 34.00723 -117.85279 21584 ft 431 kts 37°
2026-05-08 05:14 34.03120 -117.83084 21984 ft 434 kts 37°
2026-05-08 05:14 34.05530 -117.80870 22383 ft 436 kts 38°
2026-05-08 05:14 34.07857 -117.78508 22785 ft 438 kts 41°
2026-05-08 05:14 34.10046 -117.75930 23147 ft 441 kts 46°
2026-05-08 05:15 34.12086 -117.73137 23506 ft 444 kts 49°
2026-05-08 05:15 34.14052 -117.70248 23897 ft 446 kts 50°
2026-05-08 05:15 34.16011 -117.67333 24257 ft 448 kts 50°
2026-05-08 05:15 34.17987 -117.64385 24618 ft 451 kts 50°
2026-05-08 05:16 34.19966 -117.61433 24993 ft 453 kts 50°
2026-05-08 05:16 34.21952 -117.58472 25368 ft 455 kts 50°
2026-05-08 05:16 34.23947 -117.55501 25713 ft 457 kts 50°
2026-05-08 05:16 34.25963 -117.52495 26031 ft 459 kts 50°
2026-05-08 05:17 34.27977 -117.49491 26371 ft 461 kts 50°
2026-05-08 05:17 34.30003 -117.46467 26703 ft 463 kts 50°
2026-05-08 05:17 34.32040 -117.43428 27022 ft 465 kts 50°
2026-05-08 05:17 34.34081 -117.40381 27350 ft 467 kts 50°
2026-05-08 05:18 34.36129 -117.37320 27695 ft 468 kts 50°
2026-05-08 05:18 34.38178 -117.34253 27998 ft 470 kts 50°
2026-05-08 05:18 34.40239 -117.31165 28289 ft 472 kts 50°
2026-05-08 05:18 34.42307 -117.28064 28594 ft 473 kts 50°
2026-05-08 05:19 34.44370 -117.24965 29001 ft 472 kts 50°
2026-05-08 05:19 34.46426 -117.21873 29457 ft 469 kts 50°
2026-05-08 05:19 34.48471 -117.18794 29889 ft 468 kts 50°
2026-05-08 05:19 34.50507 -117.15728 30282 ft 467 kts 50°
2026-05-08 05:20 34.52543 -117.12659 30649 ft 466 kts 50°
2026-05-08 05:20 34.54575 -117.09600 31001 ft 465 kts 49°
2026-05-08 05:20 34.56638 -117.06573 31337 ft 464 kts 49°
2026-05-08 05:20 34.58685 -117.03604 31636 ft 465 kts 49°
2026-05-08 05:21 34.60764 -117.00592 31894 ft 466 kts 49°
2026-05-08 05:21 34.62845 -116.97571 32133 ft 467 kts 49°
2026-05-08 05:21 34.64933 -116.94532 32347 ft 469 kts 49°
2026-05-08 05:21 34.67022 -116.91484 32602 ft 470 kts 49°
2026-05-08 05:22 34.69113 -116.88428 32851 ft 470 kts 49°
2026-05-08 05:22 34.71206 -116.85367 33039 ft 472 kts 49°
2026-05-08 05:22 34.73309 -116.82288 33033 ft 473 kts 49°
2026-05-08 05:23 34.77509 -116.76127 33029 ft 472 kts 49°
2026-05-08 05:23 34.81700 -116.69967 33022 ft 472 kts 49°
2026-05-08 05:24 34.85926 -116.63833 33020 ft 472 kts 46°
2026-05-08 05:24 34.90344 -116.57909 33015 ft 471 kts 46°
2026-05-08 05:25 34.94771 -116.52007 33011 ft 471 kts 46°
2026-05-08 05:25 34.99193 -116.46095 33003 ft 471 kts 46°
2026-05-08 05:26 35.03605 -116.40179 32999 ft 471 kts 46°
2026-05-08 05:26 35.08011 -116.34260 33001 ft 471 kts 46°
2026-05-08 05:27 35.12413 -116.28336 33002 ft 471 kts 46°
2026-05-08 05:27 35.16068 -116.23406 32984 ft 470 kts 46°
2026-05-08 05:28 35.20468 -116.17466 32996 ft 470 kts 46°
2026-05-08 05:28 35.24859 -116.11526 32977 ft 470 kts 46°
2026-05-08 05:29 35.29244 -116.05584 32981 ft 470 kts 46°
2026-05-08 05:29 35.33621 -115.99643 32972 ft 470 kts 46°
2026-05-08 05:30 35.37987 -115.93702 32975 ft 468 kts 46°
2026-05-08 05:30 35.42340 -115.87774 32976 ft 467 kts 46°
2026-05-08 05:31 35.46693 -115.81834 32969 ft 467 kts 46°
2026-05-08 05:31 35.51039 -115.75893 32971 ft 468 kts 46°
2026-05-08 05:32 35.55386 -115.69939 32976 ft 468 kts 46°